Terminal Aerodrome Forecast
Issued by NWS

Home | Current Version | Previous Version | Graphics & Text | Print | Product List | Glossary On
Versions: 1 2 3 4 5 6 7 8 9 10 11 12 13 14
495
FTUS43 KGRB 261720
TAFMTW
TAF
KMTW 261720Z 2618/2718 VRB03KT P6SM SCT050
     FM262000 19008KT P6SM SCT050 SCT100
     FM270100 23005KT P6SM SCT100 SCT250
     FM270900 27004KT P6SM VCSH SCT070 BKN120
     FM271400 30005KT P6SM VCSH SCT060 OVC120=

USA.gov is the U.S. government's official web portal to all federal, state and local government web resources and services.